When you browse on this site, cookies collect data to enhance your experience and personalize the content and advertising you see.
Visit our Privacy Policy to learn more. By continuing to use the site, you agree to this use of cookies and data.
  • In Hungary
  • List of Countries
  • For 7 days
  • Water Temperature
  • Weather Map
  • News
  • Weather Widgets
  • user-avatar
    Login

    Hourly Weather Orzelek

    Today, 29 March, Sunday

    Time Temperature Precipitation Wind Pressure Humidity
    00:00 +4°C° 0 mm 3 mps 748 mmHg 69%
    01:00 +4°C° 0 mm 3 mps 748 mmHg 71%
    02:00 +4°C° 0.1 mm 4 mps 748 mmHg 69%
    03:00 +4°C° 0.1 mm 4 mps 748 mmHg 68%
    04:00 +4°C° 0.1 mm 4 mps 748 mmHg 66%
    05:00 +2°C° 0.2 mm 5 mps 748 mmHg 71%
    06:00 +2°C° 0.2 mm 6 mps 748 mmHg 76%
    07:00 +1°C° 0 mm 6 mps 749 mmHg 84%
    08:00 0°C° 0.6 mm 7 mps 749 mmHg 88%
    09:00 -1°C° 0.6 mm 7 mps 750 mmHg 91%
    10:00 -1°C° 0.6 mm 8 mps 751 mmHg 94%
    11:00 -1°C° 0.2 mm 8 mps 751 mmHg 85%
    12:00 0°C° 0.2 mm 8 mps 751 mmHg 77%
    13:00 0°C° 0.2 mm 9 mps 752 mmHg 69%
    14:00 0°C° 0 mm 9 mps 752 mmHg 64%
    15:00 0°C° 0 mm 9 mps 753 mmHg 60%
    16:00 0°C° 0 mm 8 mps 753 mmHg 55%
    17:00 -1°C° 0 mm 7 mps 754 mmHg 57%
    18:00 -3°C° 0 mm 6 mps 754 mmHg 59%
    19:00 -4°C° 0 mm 6 mps 755 mmHg 61%
    20:00 -4°C° 0 mm 5 mps 755 mmHg 61%
    21:00 -4°C° 0 mm 5 mps 755 mmHg 62%
    22:00 -4°C° 0 mm 4 mps 755 mmHg 62%
    23:00 -4°C° 0 mm 4 mps 755 mmHg 61%

    Tomorrow, 30 March, Monday

    Time Temperature Precipitation Wind Pressure Humidity
    00:00 -4°C° 0 mm 3 mps 755 mmHg 60%
    01:00 -4°C° 0 mm 3 mps 755 mmHg 58%
    02:00 -4°C° 0 mm 3 mps 755 mmHg 60%
    03:00 -4°C° 0 mm 3 mps 755 mmHg 61%
    04:00 -3°C° 0 mm 2 mps 755 mmHg 62%
    05:00 -4°C° 0 mm 3 mps 755 mmHg 58%
    06:00 -2°C° 0 mm 3 mps 755 mmHg 55%
    07:00 -2°C° 0 mm 3 mps 755 mmHg 51%
    08:00 0°C° 0 mm 3 mps 754 mmHg 46%
    09:00 +1°C° 0 mm 3 mps 754 mmHg 40%
    10:00 +2°C° 0 mm 3 mps 754 mmHg 35%
    11:00 +3°C° 0 mm 3 mps 754 mmHg 37%
    12:00 +3°C° 0 mm 3 mps 754 mmHg 39%
    13:00 +3°C° 0 mm 4 mps 754 mmHg 41%
    14:00 +3°C° 0.2 mm 4 mps 754 mmHg 46%
    15:00 +1°C° 0.2 mm 4 mps 753 mmHg 52%
    16:00 +1°C° 0.2 mm 4 mps 753 mmHg 57%
    17:00 +1°C° 0.2 mm 3 mps 754 mmHg 67%
    18:00 0°C° 0.2 mm 3 mps 754 mmHg 76%
    19:00 -1°C° 0.2 mm 3 mps 754 mmHg 86%
    20:00 -2°C° 0.1 mm 3 mps 754 mmHg 85%
    21:00 -2°C° 0.1 mm 2 mps 755 mmHg 84%
    22:00 -2°C° 0.1 mm 2 mps 755 mmHg 84%
    23:00 -3°C° 0 mm 2 mps 755 mmHg 82%

    Day after tomorrow, 31 March, Tuesday

    Time Temperature Precipitation Wind Pressure Humidity
    00:00 -4°C° 0 mm 3 mps 755 mmHg 80%
    01:00 -5°C° 0 mm 3 mps 756 mmHg 79%
    02:00 -5°C° 0 mm 3 mps 756 mmHg 79%
    03:00 -5°C° 0 mm 3 mps 756 mmHg 80%
    04:00 -5°C° 0 mm 3 mps 756 mmHg 81%
    05:00 -4°C° 0 mm 3 mps 756 mmHg 76%
    06:00 -3°C° 0 mm 4 mps 756 mmHg 72%
    07:00 -4°C° 0 mm 5 mps 757 mmHg 68%
    08:00 -1°C° 0 mm 5 mps 757 mmHg 63%
    09:00 0°C° 0 mm 5 mps 757 mmHg 57%
    10:00 +1°C° 0 mm 5 mps 757 mmHg 52%
    11:00 +1°C° 0.1 mm 5 mps 757 mmHg 51%
    12:00 +2°C° 0.1 mm 5 mps 757 mmHg 50%
    13:00 +2°C° 0.1 mm 5 mps 757 mmHg 50%
    14:00 +2°C° 0 mm 5 mps 757 mmHg 50%
    15:00 +1°C° 0 mm 4 mps 757 mmHg 51%
    16:00 +1°C° 0 mm 4 mps 756 mmHg 51%
    17:00 +1°C° 0 mm 3 mps 756 mmHg 55%
    18:00 -1°C° 0 mm 3 mps 756 mmHg 59%
    19:00 -2°C° 0 mm 2 mps 756 mmHg 63%
    20:00 -3°C° 0 mm 2 mps 756 mmHg 63%
    21:00 -3°C° 0 mm 2 mps 755 mmHg 63%
    22:00 -4°C° 0 mm 2 mps 755 mmHg 63%
    23:00 -4°C° 0 mm 3 mps 755 mmHg 61%

    1 April, Wednesday

    Time Temperature Precipitation Wind Pressure Humidity
    00:00 -4°C° 0 mm 3 mps 754 mmHg 59%
    01:00 -4°C° 0 mm 4 mps 754 mmHg 57%
    02:00 -4°C° 0 mm 4 mps 753 mmHg 58%
    03:00 -4°C° 0 mm 5 mps 752 mmHg 60%
    04:00 -4°C° 0 mm 5 mps 752 mmHg 62%
    05:00 -4°C° 0 mm 5 mps 751 mmHg 63%
    06:00 -3°C° 0 mm 6 mps 751 mmHg 65%
    07:00 -2°C° 0 mm 7 mps 750 mmHg 66%
    08:00 -1°C° 0 mm 7 mps 750 mmHg 67%
    09:00 -1°C° 0 mm 7 mps 750 mmHg 68%
    10:00 0°C° 0 mm 7 mps 749 mmHg 68%
    11:00 +2°C° 0 mm 6 mps 749 mmHg 68%
    12:00 +3°C° 0 mm 6 mps 749 mmHg 68%
    13:00 +3°C° 0 mm 6 mps 748 mmHg 68%
    14:00 +3°C° 0 mm 6 mps 748 mmHg 69%
    15:00 +3°C° 0 mm 6 mps 747 mmHg 70%
    16:00 +3°C° 0 mm 5 mps 747 mmHg 71%
    17:00 +3°C° 0 mm 5 mps 747 mmHg 76%
    18:00 +2°C° 0 mm 5 mps 746 mmHg 82%
    19:00 +1°C° 0 mm 4 mps 746 mmHg 87%
    20:00 +1°C° 0 mm 4 mps 746 mmHg 88%
    21:00 +1°C° 0 mm 5 mps 746 mmHg 89%
    22:00 +1°C° 0 mm 5 mps 745 mmHg 90%
    23:00 +1°C° 0 mm 5 mps 745 mmHg 91%

    2 April, Thursday

    Time Temperature Precipitation Wind Pressure Humidity
    00:00 +1°C° 0 mm 5 mps 745 mmHg 92%
    01:00 0°C° 0 mm 5 mps 744 mmHg 94%
    02:00 0°C° 0 mm 5 mps 744 mmHg 93%
    03:00 0°C° 0 mm 5 mps 743 mmHg 92%
    04:00 0°C° 0 mm 5 mps 743 mmHg 92%
    05:00 0°C° 0 mm 5 mps 743 mmHg 89%
    06:00 +1°C° 0 mm 6 mps 743 mmHg 86%
    07:00 +1°C° 0 mm 6 mps 743 mmHg 84%
    08:00 +1°C° 0 mm 6 mps 743 mmHg 83%
    09:00 +1°C° 0 mm 6 mps 742 mmHg 83%
    10:00 +1°C° 0 mm 6 mps 742 mmHg 83%
    11:00 +2°C° 0 mm 6 mps 742 mmHg 79%
    12:00 +2°C° 0 mm 6 mps 742 mmHg 74%
    13:00 +3°C° 0 mm 7 mps 742 mmHg 69%
    14:00 +3°C° 0 mm 6 mps 742 mmHg 71%
    15:00 +3°C° 0 mm 6 mps 742 mmHg 72%
    16:00 +4°C° 0 mm 6 mps 742 mmHg 73%
    17:00 +3°C° 0 mm 6 mps 741 mmHg 75%
    18:00 +3°C° 0 mm 5 mps 741 mmHg 77%
    19:00 +3°C° 0 mm 5 mps 741 mmHg 79%
    20:00 +2°C° 0 mm 5 mps 741 mmHg 81%
    21:00 +2°C° 0 mm 6 mps 741 mmHg 83%
    22:00 +1°C° 0 mm 6 mps 740 mmHg 85%
    23:00 +1°C° 0 mm 6 mps 740 mmHg 86%

    3 April, Friday

    Time Temperature Precipitation Wind Pressure Humidity
    00:00 0°C° 0 mm 7 mps 739 mmHg 86%
    01:00 0°C° 0 mm 7 mps 739 mmHg 86%
    02:00 +2°C° 0 mm 7 mps 738 mmHg 84%
    03:00 +1°C° 0 mm 8 mps 738 mmHg 82%
    04:00 +1°C° 0 mm 8 mps 737 mmHg 79%
    05:00 +1°C° 0.1 mm 8 mps 737 mmHg 80%
    06:00 +1°C° 0.1 mm 9 mps 737 mmHg 82%
    07:00 +1°C° 0.1 mm 9 mps 737 mmHg 83%
    08:00 +1°C° 0.6 mm 9 mps 737 mmHg 77%
    09:00 +2°C° 0.6 mm 9 mps 737 mmHg 71%
    10:00 +2°C° 0.6 mm 9 mps 737 mmHg 64%
    11:00 +3°C° 0.1 mm 9 mps 738 mmHg 60%
    12:00 +3°C° 0.1 mm 10 mps 738 mmHg 56%
    13:00 +5°C° 0.1 mm 10 mps 738 mmHg 52%
    14:00 +5°C° 0.2 mm 10 mps 738 mmHg 51%
    15:00 +5°C° 0.2 mm 10 mps 738 mmHg 51%
    16:00 +5°C° 0.2 mm 10 mps 739 mmHg 50%
    17:00 +3°C° 0 mm 9 mps 739 mmHg 57%
    18:00 +2°C° 0 mm 8 mps 740 mmHg 63%
    19:00 +2°C° 0 mm 7 mps 741 mmHg 70%
    20:00 0°C° 0 mm 7 mps 741 mmHg 71%
    21:00 0°C° 0 mm 7 mps 742 mmHg 73%
    22:00 0°C° 0 mm 7 mps 743 mmHg 74%
    23:00 0°C° 0 mm 7 mps 743 mmHg 75%
    Show more